This is the latest recevied weather packets stored in our database for station/object W5COG. If no packets are shown the sender has not sent any weather packets the latest 10 day(s).
| Time | Temp. | Humidity | Pressure | Rain* | Wind** | Luminosity | Snow |
|---|---|---|---|---|---|---|---|
| 1778358329 | 28.89° C | 26% | 1009.9 hPa | 0 mm | - | 793 W/m² | - |
| 1778358029 | 28.33° C | 28% | 1009.8 hPa | 0 mm | - | 805 W/m² | - |
| 1778357729 | 28.89° C | 29% | 1009.8 hPa | 0 mm | - | 813 W/m² | - |
| 1778357429 | 28.89° C | 31% | 1009.9 hPa | 0 mm | - | 823 W/m² | - |
| 1778357129 | 28.33° C | 31% | 1009.9 hPa | 0 mm | - | 829 W/m² | - |
| 1778356829 | 28.33° C | 28% | 1009.9 hPa | 0 mm | - | 835 W/m² | - |
| 1778356529 | 28.33° C | 28% | 1009.9 hPa | 0 mm | - | 842 W/m² | - |
| 1778356229 | 28.33° C | 29% | 1010 hPa | 0 mm | - | 850 W/m² | - |
| 1778355929 | 28.33° C | 28% | 1010 hPa | 0 mm | - | 855 W/m² | - |
| 1778355629 | 28.33° C | 27% | 1010.1 hPa | 0 mm | - | 864 W/m² | - |
| 1778355329 | 28.33° C | 28% | 1010.2 hPa | 0 mm | - | 868 W/m² | - |
| 1778355029 | 28.33° C | 29% | 1010.2 hPa | 0 mm | - | 874 W/m² | - |
| 1778354729 | 27.78° C | 26% | 1010.2 hPa | 0 mm | - | 883 W/m² | - |
| 1778354429 | 27.78° C | 25% | 1010.2 hPa | 0 mm | - | 888 W/m² | - |
| 1778354129 | 27.78° C | 28% | 1010.2 hPa | 0 mm | - | 892 W/m² | - |
| 1778353829 | 27.78° C | 27% | 1010.3 hPa | 0 mm | - | 891 W/m² | - |
| 1778353529 | 27.78° C | 28% | 1010.2 hPa | 0 mm | - | 900 W/m² | - |
| 1778353229 | 27.78° C | 29% | 1010.2 hPa | 0 mm | - | 901 W/m² | - |
| 1778352929 | 27.22° C | 31% | 1010.2 hPa | 0 mm | - | 903 W/m² | - |
| 1778352629 | 27.22° C | 31% | 1010.3 hPa | 0 mm | - | 907 W/m² | - |
| 1778352329 | 27.78° C | 32% | 1010.4 hPa | 0 mm | - | 911 W/m² | - |
| 1778352029 | 27.78° C | 30% | 1010.4 hPa | 0 mm | - | 843 W/m² | - |
| 1778351729 | 27.78° C | 34% | 1010.4 hPa | 0 mm | - | 912 W/m² | - |
| 1778351429 | 27.78° C | 34% | 1010.4 hPa | 0 mm | - | 927 W/m² | - |
| 1778351129 | 27.22° C | 30% | 1010.4 hPa | 0 mm | - | 930 W/m² | - |
* Rain latest hour (hover to see other rain measurements)
** Current wind speed in m/s (hover to see current wind gust speed)